CZ-6A DEB, 61292

Orbit data source: Space-Track

CZ-6A DEB, 61292 is space debris in LEO originally from a launch on Tue, 06 Aug 2024 UTC launched from the Taiyaun Space Center, China (TSC). Debris objects in space refer to the collection of defunct objects orbiting the Earth. Examples of debris include non-operational satellites, rocket bodies, and fragments generated from explosions, collisions, or faulty payload assembly.

Loading next visibility...
Identifier
61292, 2024-140TD
Orbit
LEO
Country
Flag of CNCN / PRC
Related business
Manufacturer
SAST
Mission
Spacecraft
Bus & Motor
Unknown
Mass
Unknown
Launch date (UTC)
2024-08-06 (1 year ago)
Launch vehicle
Unknown
Launch site
Taiyaun Space Center, China (TSC)
Object type
Payload
Rocket body
Debris
Shape & HBR
Unknown shape, 0.1 m
Radar Cross Section
Small (<0.1 m²)

Expand to show TLE details & history
Last TLE update: 10 hours ago

TLE from 10 hours ago
0 CZ-6A DEB
1 61292U 24140TD  25354.84830137  .00001417  00000-0  32183-3 0  9997
2 61292  89.0426 294.4303 0097993 166.9563 193.4215 14.52526779 69490
Epoch: 2025-12-20T20:21Z
TLE epoch observation values (Epoch: 2025-12-20T20:21:33.238Z)
Latitude
-0.00005°
Longitude
-100.62741°
Altitude
788.192 km
Speed
7.424 km/s
True Right ascension
19h 37m 43s
True Declination
0° 00' 00"
Sunlit
Object was in daylight at epoch
Visualization orbit readout
Latitude
Unknown
Longitude
Unknown
Altitude
Unknown
Speed
Unknown
Apparent Right ascension
Unknown
Apparent Declination
Unknown
Sunlit
N/A
Visualization observer readout
Local Sidereal Time
05:18:48
Azimuth
Unknown
Elevation
Unknown
Doppler factor
Unknown
Orbital elements
Apogee altitude
783.813 km
Perigee altitude
644.811 km
Semi-major axis
7,092.449 km
Eccentricity
0.0098
Inclination
89.0426°
RAAN
294.4303°
Arg. of periapsis
166.9563°
True anomaly
193.16393°
Mean anomaly
193.4215°
Eccentric anomaly
193.29241°
Mean motion
3.6337 °/min
Orbital period
99.07 mins
BSTAR
0.00032183
Loading maneuver chart data...
Computing Atmospheric mass density...
Loading historical data...
Loading historical data...
Loading historical data...
Loading historical data...
Loading historical data...
Loading historical data...
Loading historical data...

Documentation

Showing up to 5 results
|